This demonstration page uses our WeatherBlox Daily Observations layout. Learn more.

Left ArrowRight Arrow

34.16533, -84.80231

Hourly Observations for July 19, 2020

Temp ( °F °C ) Dew Point ( °F °C ) Humidity (%) Winds ( mph kmh ) Pressure ( in mb ) Visibility ( mi km ) Precip ( " mm )
12:53 am 00:53 Clear 75 23.9 71 21.7 88 88 Calm 30.06 1018 10 16 0.00 0.00
1:53 am 01:53 Clear 74 23.3 71 21.7 91 91 Calm 30.05 1018 8 13 0.00 0.00
2:53 am 02:53 Clear 75 23.9 72 22.2 90 90 Calm 30.04 1017 9 14 0.00 0.00
3:53 am 03:53 Clear 73 22.8 70 21.1 90 90 Calm 30.03 1017 7 11 0.00 0.00
4:53 am 04:53 Clear with Mist and Fog 74 23.3 71 21.7 91 91 Calm 30.03 1017 6 10 0.00 0.00
5:53 am 05:53 Clear with Mist and Fog 72 22.2 69 20.6 91 91 Calm 30.05 1018 6 10 0.00 0.00
6:53 am 06:53 Sunny with Mist and Fog 73 22.8 70 21.1 90 90 Calm 30.07 1018 4 6 0.00 0.00
7:53 am 07:53 Sunny 76 24.4 72 22.2 88 88 Calm 30.08 1019 7 11 0.00 0.00
8:53 am 08:53 Sunny 80 26.7 74 23.3 82 82 Calm 30.09 1019 10 16 0.00 0.00
9:53 am 09:53 Mostly Sunny 85 29.4 73 22.8 68 68 Calm 30.10 1019 10 16 0.00 0.00
10:53 am 10:53 Mostly Sunny 88 31.1 72 22.2 59 59 Calm 30.09 1019 10 16 0.00 0.00
11:53 am 11:53 Sunny 91 32.8 73 22.8 56 56 Calm 30.08 1019 10 16 0.00 0.00
12:53 pm 12:53 Sunny 93 33.9 71 21.7 49 49 VRB 3 6 30.06 1018 10 16 0.00 0.00
1:53 pm 13:53 Mostly Sunny 95 35 71 21.7 46 46 VRB 3 6 30.04 1017 10 16 0.00 0.00
2:53 pm 14:53 Mostly Cloudy 94 34.4 70 21.1 46 46 VRB 5 7 30.02 1017 10 16 0.00 0.00
3:53 pm 15:53 Sunny 97 36.1 68 20 39 39 VRB 6 9 29.99 1016 10 16 0.00 0.00
4:53 pm 16:53 Sunny 96 35.6 69 20.6 41 41 undefined N/A 29.98 1015 10 16 0.00 0.00
5:53 pm 17:53 Sunny 96 35.6 68 20 40 40 VRB 3 6 29.98 1015 10 16 0.00 0.00
6:53 pm 18:53 Sunny with Nearby Thunderstorms 92 33.3 70 21.1 49 49 S 6 9 29.97 1015 10 16 0.00 0.00
7:36 pm 19:36 Sunny 87 30.6 71 21.7 59 59 Calm 29.99 1015 10 16 0.00 0.00
7:53 pm 19:53 Sunny 87 30.6 71 21.7 59 59 Calm 29.99 1016 10 16 0.00 0.00
8:53 pm 20:53 Mostly Cloudy 84 28.9 70 21.1 63 63 Calm 30.00 1016 10 16 0.00 0.00
9:53 pm 21:53 Mostly Clear 82 27.8 72 22.2 72 72 Calm 30.01 1016 10 16 0.00 0.00
10:53 pm 22:53 Clear 80 26.7 71 21.7 74 74 Calm 30.02 1017 10 16 0.00 0.00
11:53 pm 23:53 Clear 78 25.6 71 21.7 79 79 Calm 30.01 1016 10 16 0.00 0.00

Powered by AerisWeather